Weather History for Cross City, FL

Change the Weather History Date:

Sunday, April 28, 2013

  Actual Average Record
Temperature  
Mean Temperature 73 °F 69 °F  
Max Temperature 86 °F 83 °F 89 °F (2012)
Min Temperature 60 °F 56 °F 45 °F (2004)
Degree Days  
Heating Degree Days 0 1  
Month to date heating degree days 31 49  
Since 1 July heating degree days 1124 1304  
Cooling Degree Days 8 5  
Month to date cooling degree days 148 97  
Year to date cooling degree days 266 171  
Growing Degree Days 23 (Base 50)    
Moisture  
Dew Point 61 °F    
Average Humidity 70    
Maximum Humidity 93    
Minimum Humidity 47    
Precipitation  
Precipitation 0.00 in 0.05 in 1.15 in (2011)
Month to date precipitation 2.78 2.86  
Year to date precipitation 7.50 14.38  
Sea Level Pressure  
Sea Level Pressure 30.07 in    
Wind  
Wind Speed 4 mph (SSE)    
Max Wind Speed 14 mph    
Max Gust Speed 20 mph    
T = Trace of Precipitation, MM = Missing Value Source: NWS Daily Summary

Daily Weather History Graph

Daily Weather History Graph

Search for Another Location

Airport:

Trip Planner

Search our weather history database for the weather conditions in past years. The results will help you decide how hot, cold, wet, or windy it might be!

Date:

Astronomy

Apr. 28, 2013 Rise Set
Actual Time 6:52 AM EDT 8:07 PM EDT
Civil Twilight 6:27 AM EDT 8:32 PM EDT
Nautical Twilight 5:57 AM EDT 9:02 PM EDT
Astronomical Twilight 5:26 AM EDT 9:33 PM EDT
Moon 11:29 PM EDT (4/28) 9:16 AM EDT (4/28)
Length of Visible Light 14h 05m
Length of Day
13h 14m
Waning Gibbous, 89% of the Moon is Illuminated
Apr 28
Waning Gibbous
May 2
Last Quarter
May 9
New
May 18
First Quarter
May 25
Full

Hourly Weather History & Observations

Time (EDT) Temp. Heat Index Dew Point Humidity Pressure Visibility Wind Dir Wind Speed Gust Speed Precip Events Conditions
12:53 AM 66.0 °F - 55.9 °F 70% 30.16 in - Calm Calm - N/A   Unknown
1:53 AM 66.0 °F - 57.0 °F 73% 30.14 in - East 3.5 mph - N/A   Unknown
2:53 AM 64.9 °F - 57.9 °F 78% 30.10 in - Calm Calm - N/A   Unknown
3:53 AM 63.0 °F - 57.0 °F 81% 30.10 in - Calm Calm - N/A   Unknown
4:53 AM 60.1 °F - 57.0 °F 90% 30.09 in - Calm Calm - N/A   Unknown
5:53 AM 64.0 °F - 60.1 °F 87% 30.08 in - Variable 3.5 mph - N/A   Unknown
6:53 AM 61.0 °F - 57.9 °F 90% 30.09 in - Calm Calm - N/A   Unknown
7:53 AM 63.0 °F - 61.0 °F 93% 30.12 in - Calm Calm - N/A   Unknown
8:53 AM 70.0 °F - 63.0 °F 78% 30.13 in - ENE 3.5 mph - N/A   Unknown
9:53 AM 75.9 °F - 64.9 °F 69% 30.13 in - SE 5.8 mph - N/A   Unknown
10:53 AM 71.1 °F - 62.1 °F 73% 30.12 in - South 11.5 mph - N/A   Unknown
11:53 AM 81.0 °F 82.2 °F 63.0 °F 54% 30.11 in - SE 9.2 mph 17.3 mph N/A   Unknown
12:53 PM 82.0 °F 83.0 °F 62.1 °F 51% 30.09 in - SSE 5.8 mph - N/A   Unknown
1:53 PM 84.0 °F 84.5 °F 62.1 °F 47% 30.06 in - ESE 5.8 mph - N/A   Unknown
2:53 PM 82.9 °F 83.2 °F 60.1 °F 46% 30.03 in - SE 4.6 mph - N/A   Unknown
3:53 PM 82.9 °F 84.6 °F 64.9 °F 54% 30.01 in - Calm Calm - N/A   Unknown
4:53 PM 82.9 °F 84.4 °F 64.0 °F 53% 30.00 in - SW 10.4 mph 17.3 mph N/A   Unknown
5:53 PM 82.0 °F 83.0 °F 62.1 °F 51% 29.99 in - SW 9.2 mph - N/A   Unknown
6:53 PM 79.0 °F - 63.0 °F 58% 29.98 in - WSW 11.5 mph - N/A   Unknown
7:53 PM 75.0 °F - 64.0 °F 69% 29.98 in - West 4.6 mph - N/A   Unknown
8:53 PM 71.1 °F - 63.0 °F 75% 30.00 in - Calm Calm - N/A   Unknown
9:53 PM 69.1 °F - 63.0 °F 81% 30.02 in - Calm Calm - N/A   Unknown
10:53 PM 66.9 °F - 63.0 °F 87% 30.02 in - Calm Calm - N/A   Unknown
11:53 PM 66.9 °F - 63.0 °F 87% 30.02 in - Calm Calm - N/A   Unknown